General Downing - Peoria International Airport (PIA)


Airport Diagram
Current Weather/Forecast (VFR Conditions)
METAR KPIA 300754Z 00000KT 10SM OVC042 03/M01 A3017 RMK AO2 SLP222 T00331011
TAF KPIA 300520Z 3006/3106 VRB03KT P6SM SCT045 TEMPO 3006/3009 BKN045 FM301200 VRB03KT P6SM SCT060 FM302200 12005KT P6SM SKC

All Charts
General
Chart Name Download
AIRPORT DIAGRAM
TAKEOFF MINIMUMS
ALTERNATE MINIMUMS
HOT SPOT

Approaches
Chart Name Download
HI-ILS OR LOC RWY 31
ILS OR LOC RWY 04
ILS OR LOC RWY 13
ILS OR LOC RWY 31
ILS RWY 04 (SA CAT I - II)
RNAV (GPS) RWY 04
RNAV (GPS) RWY 13
RNAV (GPS) RWY 22
RNAV (GPS) RWY 31
HI-VOR/DME OR TACAN RWY 31
VOR/DME OR TACAN RWY 31
VOR OR TACAN RWY 13
NDB RWY 31